Home   Weather   Macon   Past weeks

Flag for USA Past Weather in Macon, Georgia, USA — Yesterday and Last 2 Weeks

Now
65 °F

Low clouds.


Feels Like: 65 °F
Forecast: 63 / 69 °F
Wind: 3 mph from South

Location: Middle Georgia Regional Airport

Current Time: Jan 21, 2017 at 1:31:06 am

Latest Report: Jan 21, 2017 at 12:53 am


Visibility: 10 mi

Pressure: 29.86 "Hg

Humidity: 94%

Dew Point: 63 °F

Location of MaconLocation

Past Weather in Macon — Graph

°F

Macon Temperature Yesterday

Maximum temperature yesterday: 72 °F (at 12:01 pm)
Minimum temperature yesterday: 62 °F (at 5:16 am)
Average temperature yesterday: 66 °F

High & Low Weather Summary for the Past Weeks

 TemperatureHumidityPressure
High77 °F (Jan 13, 1:53 pm)100% (Jan 17, 8:53 am)30.75 "Hg (Jan 17, 8:53 am)
Low21 °F (Jan 8, 6:53 am)19% (Jan 9, 2:53 pm)29.82 "Hg (Jan 20, 3:53 am)
Average53 °F75%30.25 "Hg
* Reported Jan 5 11:53 pm — Jan 20 11:53 pm, Macon, Weather by CustomWeather, © 2017

Note: Actual official high and low records may vary slightly from our data, if they occured in-between our weather recording intervals... More about our weather records

Advertising

Macon Weather History for the Previous 24 Hours

Scroll right to see more
 ConditionsComfort  
Time TempWeatherWind HumidityBarometerVisibility
11:53 pm
Fri, Jan 20
64 °FLow clouds.No wind90%29.88 "Hg10 mi
11:38 pm64 °FPassing clouds.No wind90%29.89 "Hg10 mi
10:53 pm64 °FClear.3 mph87%29.87 "Hg10 mi
9:53 pm66 °FPassing clouds.3 mph81%29.86 "Hg10 mi
8:53 pm66 °FMostly cloudy.6 mph81%29.86 "Hg10 mi
7:53 pm67 °FOvercast.5 mph79%29.86 "Hg10 mi
6:53 pm67 °FPartly cloudy.No wind79%29.86 "Hg10 mi
5:53 pm69 °FPassing clouds.3 mph73%29.84 "Hg10 mi
4:53 pm72 °FPassing clouds.6 mph66%29.84 "Hg10 mi
3:53 pm72 °FPassing clouds.9 mph68%29.83 "Hg10 mi
2:53 pm72 °FPartly sunny.8 mph66%29.84 "Hg10 mi
1:53 pm72 °FCloudy.12 mph66%29.85 "Hg10 mi
12:53 pm72 °FMostly cloudy.13 mph64%29.87 "Hg10 mi
12:01 pm72 °FBroken clouds.15 mph66%29.90 "Hg10 mi
11:33 am69 °FMostly cloudy.10 mph73%29.92 "Hg10 mi
11:17 am69 °FOvercast.13 mph70%29.91 "Hg10 mi
10:53 am69 °FOvercast.12 mph76%29.90 "Hg10 mi
9:53 am67 °FOvercast.10 mph81%29.89 "Hg10 mi
9:10 am65 °FMore clouds than sun.9 mph87%29.89 "Hg10 mi
8:53 am65 °FOvercast.8 mph87%29.87 "Hg10 mi
7:53 am63 °FCloudy.8 mph93%29.85 "Hg10 mi
7:38 am63 °FCloudy.6 mph93%29.86 "Hg10 mi
6:53 am62 °FLow clouds.3 mph96%29.84 "Hg8 mi
6:25 am62 °FPassing clouds.5 mph96%29.85 "Hg10 mi
6:18 am62 °FPassing clouds.6 mph96%29.84 "Hg10 mi
5:53 am63 °FPassing clouds.6 mph93%29.83 "Hg10 mi
5:25 am63 °FPassing clouds.6 mph93%29.84 "Hg10 mi
5:16 am62 °FPartly cloudy.5 mph93%29.84 "Hg10 mi
4:53 am63 °FPassing clouds.3 mph93%29.83 "Hg10 mi
3:53 am64 °FClear.10 mph90%29.82 "Hg10 mi
2:53 am65 °FLight rain. Mostly cloudy.17 mph91%29.83 "Hg10 mi
2:33 am65 °FMostly cloudy.14 mph91%29.83 "Hg10 mi
1:53 am65 °FLight rain. Partly cloudy.10 mph91%29.85 "Hg10 mi
Weather by CustomWeather, © 2017

See weather overviewHow to use our weather pages